Weather History for KUIN - October, 2014

Change the Weather History Date:

Wednesday, October 1, 2014

  Actual Average Record
Temperature  
Mean Temperature 62 °F 60 °F  
Max Temperature 69 °F 71 °F 90 °F (1937)
Min Temperature 54 °F 49 °F 32 °F (1958)
Degree Days  
Heating Degree Days 3 7  
Month to date heating degree days 3 7  
Since 1 July heating degree days 95 94  
Cooling Degree Days 0 2  
Month to date cooling degree days 0 2  
Year to date cooling degree days 1016 1078  
Growing Degree Days 10 (Base 50)    
Moisture  
Dew Point 61 °F    
Average Humidity 83    
Maximum Humidity 93    
Minimum Humidity 73    
Precipitation  
Precipitation 1.90 in 0.10 in 1.90 in (2014)
Month to date precipitation 1.90 0.10  
Year to date precipitation 33.79 29.15  
Sea Level Pressure  
Sea Level Pressure 29.86 in    
Wind  
Wind Speed 9 mph (ESE)    
Max Wind Speed 17 mph    
Max Gust Speed 22 mph    
Visibility 5 miles    
Events Fog , Rain , Thunderstorm    
T = Trace of Precipitation, MM = Missing Value Source: NWS Daily Summary

Daily Weather History Graph

Daily Weather History Graph

Search for Another Location

Airport or City:

Trip Planner

Search our weather history database for the weather conditions in past years. The results will help you decide how hot, cold, wet, or windy it might be!

Date:

Astronomy

Oct. 01, 2014 Rise Set
Actual Time 7:01 AM CDT 6:47 PM CDT
Civil Twilight 6:34 AM CDT 7:14 PM CDT
Nautical Twilight 6:02 AM CDT 7:45 PM CDT
Astronomical Twilight 5:31 AM CDT 8:16 PM CDT
Moon 2:02 PM CDT (10/1) No Moon Set
Length of Visible Light 12h 39m
Length of Day
11h 46m
Waxing Crescent, 49% of the Moon is Illuminated
Oct 1
Waxing Crescent
Oct 1
First Quarter
Oct 8
Full
Oct 15
Last Quarter
Oct 23
New

Hourly Weather History & Observations

Time (CDT) Temp. Dew Point Humidity Pressure Visibility Wind Dir Wind Speed Gust Speed Precip Events Conditions
12:54 AM 60.8 °F 55.4 °F 82% 29.90 in 10.0 mi ESE 10.4 mph - N/A   Clear
1:54 AM 64.0 °F 57.9 °F 80% 29.95 in 10.0 mi SSW 4.6 mph - N/A   Clear
2:54 AM 62.1 °F 57.0 °F 84% 29.94 in 10.0 mi SSW 3.5 mph - N/A   Clear
3:54 AM 57.2 °F 53.6 °F 88% 29.88 in 10.0 mi ESE 11.5 mph - N/A   Clear
4:54 AM 55.9 °F 52.0 °F 87% 29.87 in 10.0 mi ESE 10.4 mph - N/A   Clear
5:54 AM 55.0 °F 51.1 °F 86% 29.87 in 10.0 mi SE 12.7 mph - N/A   Clear
6:54 AM 54.0 °F 51.1 °F 90% 29.88 in 10.0 mi SE 11.5 mph - N/A   Clear
7:54 AM 55.9 °F 52.0 °F 87% 29.89 in 9.0 mi ESE 10.4 mph - N/A   Clear
8:54 AM 61.0 °F 55.0 °F 81% 29.88 in 10.0 mi SE 12.7 mph - N/A   Clear
9:54 AM 59.0 °F 57.9 °F 96% 29.98 in 0.5 mi ENE 11.5 mph - N/A Fog Fog
10:54 AM 66.9 °F 57.9 °F 73% 29.92 in 8.0 mi WNW 11.5 mph - N/A   Overcast
11:54 AM 64.9 °F 59.0 °F 81% 29.90 in 8.0 mi East 4.6 mph - 0.00 in Rain Light Rain
12:33 PM 64.0 °F 60.1 °F 87% 29.88 in 3.0 mi East 6.9 mph - 0.08 in Rain , Thunderstorm Rain
12:40 PM 63.0 °F 60.1 °F 90% 29.88 in 2.5 mi ESE 6.9 mph - 0.10 in Rain , Thunderstorm Rain
12:54 PM 63.0 °F 61.0 °F 93% 29.85 in 3.0 mi ESE 9.2 mph - 0.12 in Rain Light Rain
1:24 PM 63.0 °F 61.0 °F 93% 29.88 in 3.0 mi SSE 4.6 mph - 0.04 in Rain , Thunderstorm Light Rain
1:28 PM 64.9 °F 59.0 °F 81% 29.96 in 6.0 mi ESE 8.1 mph - N/A   Haze
1:36 PM 63.0 °F 61.0 °F 93% 29.88 in 2.5 mi South 5.8 mph - 0.06 in Rain , Thunderstorm Rain
1:54 PM 63.0 °F 60.1 °F 90% 29.86 in 2.5 mi SSE 5.8 mph - 0.10 in Rain , Thunderstorm Rain
2:22 PM 63.0 °F 61.0 °F 93% 29.85 in 2.5 mi ESE 6.9 mph - 0.06 in Rain , Thunderstorm Light Thunderstorms and Rain
2:30 PM 63.0 °F 61.0 °F 93% 29.85 in 3.0 mi ESE 5.8 mph - 0.06 in Rain , Thunderstorm Light Thunderstorms and Rain
2:37 PM 64.0 °F 62.1 °F 93% 29.84 in 3.0 mi SE 6.9 mph - 0.06 in Rain Light Rain
2:54 PM 64.0 °F 62.1 °F 93% 29.84 in 3.0 mi SE 8.1 mph - 0.07 in Rain Light Rain
3:14 PM 64.0 °F 62.1 °F 93% 29.83 in 2.0 mi SE 9.2 mph - 0.01 in Rain , Thunderstorm Light Rain
3:27 PM 64.4 °F 62.6 °F 94% 29.83 in 1.8 mi SE 6.9 mph - N/A Rain , Thunderstorm Light Thunderstorms and Rain
3:54 PM 64.9 °F 63.0 °F 93% 29.82 in 1.5 mi SE 6.9 mph - 0.10 in Rain , Thunderstorm Thunderstorms and Rain
4:17 PM 64.0 °F 63.0 °F 96% 29.83 in 1.0 mi South 5.8 mph - 0.08 in Rain , Thunderstorm Heavy Rain
4:25 PM 64.9 °F 63.0 °F 93% 29.84 in 1.2 mi South 9.2 mph - 0.11 in Rain , Thunderstorm Thunderstorms and Rain
4:44 PM 64.9 °F 64.0 °F 97% 29.85 in 0.8 mi Variable 3.5 mph - 0.30 in Rain , Thunderstorm Heavy Thunderstorms and Rain
4:51 PM 64.4 °F 64.4 °F 100% 29.85 in - Calm Calm - 0.38 in Rain , Thunderstorm Heavy Thunderstorms and Rain
4:54 PM 64.9 °F 64.0 °F 97% 29.84 in - East 3.5 mph - 0.46 in Rain , Thunderstorm Heavy Thunderstorms and Rain
5:01 PM 64.9 °F 64.0 °F 97% 29.87 in 0.8 mi Calm Calm - 0.16 in Rain , Thunderstorm Heavy Thunderstorms and Rain
5:15 PM 64.0 °F 63.0 °F 96% 29.83 in 1.0 mi East 16.1 mph - 0.48 in Rain , Thunderstorm Heavy Thunderstorms and Rain
5:22 PM 64.0 °F 64.0 °F 100% 29.84 in 3.0 mi ENE 9.2 mph - 0.49 in Rain , Thunderstorm Rain
5:28 PM 64.9 °F 64.0 °F 97% 29.86 in 2.5 mi Calm Calm - 0.54 in Rain , Thunderstorm Heavy Rain
5:33 PM 64.9 °F 64.0 °F 97% 29.86 in 0.8 mi Calm Calm - 0.70 in Rain , Thunderstorm Heavy Rain
5:40 PM 64.9 °F 63.0 °F 93% 29.83 in 0.5 mi ENE 10.4 mph - 0.93 in Fog , Rain , Thunderstorm Heavy Thunderstorms and Rain
5:45 PM 64.9 °F 64.0 °F 97% 29.83 in 1.0 mi East 11.5 mph - 0.93 in Rain , Thunderstorm Light Thunderstorms and Rain
5:51 PM 64.4 °F 64.4 °F 100% 29.84 in 3.0 mi ESE 9.2 mph - 0.93 in Rain , Thunderstorm Light Thunderstorms and Rain
5:54 PM 64.9 °F 64.0 °F 97% 29.83 in 4.0 mi ESE 5.8 mph - 0.93 in Rain , Thunderstorm Light Thunderstorms and Rain
6:15 PM 66.0 °F 64.0 °F 93% 29.81 in 9.0 mi East 8.1 mph - 0.01 in Rain , Thunderstorm Light Rain
6:45 PM 64.9 °F 63.0 °F 93% 29.81 in 10.0 mi ESE 10.4 mph - 0.01 in   Clear
6:54 PM 64.9 °F 63.0 °F 93% 29.81 in 10.0 mi East 9.2 mph - 0.01 in   Partly Cloudy
7:54 PM 64.9 °F 63.0 °F 93% 29.80 in 10.0 mi ESE 9.2 mph - N/A   Scattered Clouds
8:54 PM 64.9 °F 63.0 °F 93% 29.84 in 9.0 mi South 6.9 mph - 0.02 in Rain Light Rain
9:54 PM 66.0 °F 64.0 °F 93% 29.80 in 10.0 mi SE 10.4 mph - 0.08 in   Overcast
10:54 PM 66.0 °F 64.0 °F 93% 29.79 in 7.0 mi NE 6.9 mph - 0.00 in Rain Light Rain
11:54 PM 66.9 °F 64.9 °F 93% 29.78 in 10.0 mi South 11.5 mph - 0.01 in   Partly Cloudy